Weather History for KNXP - July, 2013

Change the Weather History Date:

Tuesday, July 9, 2013

  Actual Average Record
Temperature  
Mean Temperature 94 °F -  
Max Temperature 108 °F 99 °F 109 °F (2002)
Min Temperature 82 °F 74 °F 66 °F (2015)
Cooling Degree Days 29    
Growing Degree Days 44 (Base 50)    
Moisture  
Dew Point 36 °F    
Average Humidity 13    
Maximum Humidity 25    
Minimum Humidity 8    
Precipitation  
Precipitation 0.00 in - - ()
Sea Level Pressure  
Sea Level Pressure 29.91 in    
Wind  
Wind Speed 7 mph (WNW)    
Max Wind Speed 16 mph    
Max Gust Speed 24 mph    
Visibility 10 miles    
Events      
Averages and records for this station are not official NWS values.
T = Trace of Precipitation, MM = Missing Value Source: NWS Daily Summary

Daily Weather History Graph

Daily Weather History Graph

Search for Another Location

Airport or City:

Trip Planner

Search our weather history database for the weather conditions in past years. The results will help you decide how hot, cold, wet, or windy it might be!

Date:

Astronomy

Jul. 09, 2013 Rise Set
Actual Time 5:40 AM PDT 7:59 PM PDT
Civil Twilight 5:11 AM PDT 8:28 PM PDT
Nautical Twilight 4:35 AM PDT 9:03 PM PDT
Astronomical Twilight 3:57 AM PDT 9:42 PM PDT
Moon 7:03 AM PDT (7/9) 8:46 PM PDT (7/9)
Length of Visible Light 15h 16m
Length of Day
14h 18m
New Moon, 2% of the Moon is Illuminated
Jul 9
New Moon
Jul 15
First Quarter
Jul 22
Full
Jul 29
Last Quarter
Aug 6
New

Hourly Weather History & Observations

Time (PDT) Temp. Dew Point Humidity Pressure Visibility Wind Dir Wind Speed Gust Speed Precip Events Conditions
12:56 AM 90.0 °F 28.0 °F 11% 29.90 in 10.0 mi WNW 6.9 mph - N/A   Clear
1:56 AM 88.0 °F 28.9 °F 12% 29.90 in 10.0 mi Calm Calm - N/A   Clear
2:56 AM 89.1 °F 30.0 °F 12% 29.90 in 10.0 mi NNW 6.9 mph - N/A   Clear
3:56 AM 87.1 °F 30.9 °F 13% 29.90 in 10.0 mi NW 10.4 mph - N/A   Clear
4:56 AM 84.0 °F 30.9 °F 15% 29.91 in 10.0 mi West 8.1 mph - N/A   Clear
5:56 AM 82.9 °F 30.9 °F 15% 29.94 in 10.0 mi WNW 10.4 mph - N/A   Clear
6:56 AM 86.0 °F 32.0 °F 14% 29.96 in 10.0 mi WNW 10.4 mph - N/A   Partly Cloudy
7:56 AM 90.0 °F 32.0 °F 13% 29.97 in 10.0 mi NW 9.2 mph - N/A   Scattered Clouds
8:56 AM 91.9 °F 51.1 °F 25% 29.99 in 10.0 mi WSW 11.5 mph - N/A   Scattered Clouds
9:56 AM 93.9 °F 48.0 °F 21% 29.99 in 10.0 mi West 8.1 mph - N/A   Scattered Clouds
10:56 AM 96.1 °F 43.0 °F 16% 29.99 in 10.0 mi Calm Calm - N/A   Scattered Clouds
11:56 AM 98.1 °F 35.1 °F 11% 29.98 in 10.0 mi SW 4.6 mph - N/A   Scattered Clouds
12:56 PM 102.0 °F 36.0 °F 10% 29.96 in 10.0 mi East 5.8 mph - N/A   Scattered Clouds
1:56 PM 102.0 °F 34.0 °F 9% 29.94 in 10.0 mi Variable 3.5 mph - N/A   Scattered Clouds
2:56 PM 106.0 °F 34.0 °F 8% 29.91 in 10.0 mi NNW 6.9 mph - N/A   Scattered Clouds
3:56 PM 104.0 °F 37.9 °F 10% 29.89 in 10.0 mi Calm Calm - N/A   Clear
4:56 PM 105.1 °F 41.0 °F 11% 29.86 in 10.0 mi Variable 3.5 mph - N/A   Clear
5:56 PM 105.1 °F 37.0 °F 10% 29.84 in 10.0 mi Calm Calm - N/A   Clear
6:56 PM 104.0 °F 45.0 °F 14% 29.83 in 10.0 mi SW 12.7 mph - N/A   Clear
7:56 PM 100.9 °F 42.1 °F 13% 29.83 in 10.0 mi SW 13.8 mph - N/A   Clear
8:56 PM 98.1 °F 36.0 °F 11% 29.85 in 10.0 mi SW 15.0 mph - N/A   Clear
9:56 PM 98.1 °F 36.0 °F 11% 29.87 in 10.0 mi WNW 15.0 mph 19.6 mph N/A   Clear
10:56 PM 96.1 °F 37.0 °F 13% 29.88 in 10.0 mi NW 13.8 mph - N/A   Clear
11:56 PM 95.0 °F 37.0 °F 13% 29.88 in 10.0 mi WNW 16.1 mph 24.2 mph N/A   Clear